| time (UTC) | temp C | wind direction | speed KPH | gust KPH | rain 1hr cm | rain 24hr cm | rain mn cm | humidity % | barometer mb |
| 20260507224439 | 15 | 286 | 0.0 | 0.0 | 0.00 | 1.50 | 0.00 | 80 | 1014.1 |
| 20260507224005 | 15 | 286 | 0.0 | 0.0 | 0.00 | 1.50 | 0.00 | 79 | 1014.1 |
| 20260507222958 | 16 | 286 | 0.0 | 0.0 | 0.00 | 1.50 | 0.00 | 78 | 1014.1 |
| 20260507222441 | 16 | 286 | 0.0 | 0.0 | 0.00 | 1.50 | 0.00 | 77 | 1014.1 |
| 20260507221944 | 16 | 286 | 0.0 | 0.0 | 0.00 | 1.50 | 0.00 | 77 | 1014.1 |
| 20260507221444 | 16 | 286 | 0.0 | 0.0 | 0.00 | 1.50 | 0.00 | 76 | 1014.1 |
| 20260507221006 | 16 | 286 | 0.0 | 0.0 | 0.00 | 1.50 | 0.00 | 76 | 1014.1 |
| 20260507220447 | 16 | 286 | 0.0 | 0.0 | 0.00 | 1.50 | 0.00 | 76 | 1014.1 |
| 20260507215959 | 16 | 286 | 0.0 | 0.0 | 0.00 | 1.50 | 0.00 | 76 | 1014.0 |
| 20260507215503 | 16 | 271 | 0.0 | 0.0 | 0.00 | 1.60 | 0.33 | 76 | 1014.1 |
| 20260507214943 | 16 | 271 | 0.0 | 0.0 | 0.00 | 1.60 | 0.33 | 76 | 1014.1 |
| 20260507214443 | 16 | 271 | 0.0 | 0.0 | 0.00 | 1.60 | 0.33 | 75 | 1014.1 |
| 20260507213943 | 16 | 271 | 0.0 | 0.0 | 0.00 | 1.60 | 0.33 | 75 | 1014.0 |
| 20260507210450 | 17 | 238 | 0.0 | 0.0 | 0.00 | 1.60 | 0.33 | 73 | 1013.9 |
| 20260507205443 | 17 | 231 | 0.0 | 0.0 | 0.00 | 1.70 | 0.33 | 72 | 1013.9 |
| 20260507204447 | 17 | 227 | 0.0 | 0.0 | 0.00 | 1.70 | 0.33 | 72 | 1013.8 |
| 20260507202948 | 17 | 234 | 0.0 | 0.0 | 0.00 | 1.70 | 0.33 | 70 | 1013.5 |
| 20260507202509 | 18 | 234 | 0.0 | 0.0 | 0.00 | 1.70 | 0.33 | 70 | 1013.6 |
| 20260507201457 | 18 | 190 | 0.0 | 9.7 | 0.00 | 1.70 | 0.33 | 69 | 1013.6 |
| 20260507200451 | 18 | 6 | 0.0 | 0.0 | 0.00 | 1.70 | 0.33 | 68 | 1013.4 |
| 20260507195953 | 18 | 6 | 0.0 | 0.0 | 0.00 | 1.70 | 0.33 | 68 | 1013.3 |
| 20260507195021 | 18 | 13 | 0.0 | 0.0 | 0.00 | 1.91 | 0.33 | 67 | 1013.2 |
| 20260507194505 | 18 | 13 | 0.0 | 0.0 | 0.00 | 1.91 | 0.33 | 66 | 1013.2 |
| 20260507194009 | 18 | 15 | 0.0 | 0.0 | 0.00 | 1.91 | 0.23 | 66 | 1013.1 |
| 20260507193510 | 18 | 242 | 0.0 | 0.0 | 0.00 | 1.91 | 0.23 | 65 | 1012.9 |
| 20260507192953 | 18 | 242 | 0.0 | 0.0 | 0.00 | 1.91 | 0.23 | 64 | 1012.8 |
| 20260507192500 | 18 | 242 | 0.0 | 0.0 | 0.00 | 1.91 | 0.23 | 64 | 1012.7 |
| 20260507192006 | 18 | 242 | 0.0 | 0.0 | 0.00 | 1.91 | 0.23 | 63 | 1012.7 |
| 20260507191512 | 18 | 242 | 0.0 | 0.0 | 0.00 | 1.91 | 0.23 | 63 | 1012.7 |
| 20260507191355 | 18 | 242 | 0.0 | 0.0 | 0.00 | 1.91 | 0.23 | 63 | 1012.6 |
| 20260507190859 | 18 | 242 | 0.0 | 0.0 | 0.00 | 1.91 | 0.23 | 62 | 1012.5 |
| 20260507190403 | 19 | 242 | 0.0 | 0.0 | 0.00 | 1.91 | 0.23 | 61 | 1012.5 |
| 20260507185923 | 19 | 242 | 0.0 | 0.0 | 0.00 | 2.01 | 0.23 | 61 | 1012.4 |
| 20260507185407 | 19 | 242 | 0.0 | 0.0 | 0.00 | 2.01 | 0.23 | 60 | 1012.4 |
| 20260507184907 | 20 | 242 | 0.0 | 0.0 | 0.00 | 2.01 | 0.23 | 59 | 1012.3 |
| 20260507184409 | 20 | 242 | 0.0 | 0.0 | 0.00 | 2.01 | 0.23 | 59 | 1012.3 |
| 20260507183909 | 20 | 242 | 0.0 | 0.0 | 0.00 | 2.01 | 0.23 | 58 | 1012.3 |
| 20260507183431 | 20 | 242 | 0.0 | 0.0 | 0.00 | 2.01 | 0.23 | 57 | 1012.3 |
| 20260507182910 | 20 | 242 | 0.0 | 0.0 | 0.00 | 2.01 | 0.23 | 56 | 1012.2 |
| 20260507182431 | 20 | 242 | 0.0 | 0.0 | 0.00 | 2.01 | 0.23 | 56 | 1012.2 |
| 20260507181910 | 20 | 242 | 0.0 | 0.0 | 0.00 | 2.01 | 0.23 | 55 | 1012.1 |
| 20260507181413 | 20 | 48 | 0.0 | 0.0 | 0.00 | 2.01 | 0.23 | 55 | 1012.1 |
| 20260507180938 | 20 | 46 | 0.0 | 0.0 | 0.00 | 2.01 | 0.23 | 55 | 1012.1 |
| 20260507180421 | 20 | 44 | 0.0 | 0.0 | 0.00 | 2.01 | 0.23 | 54 | 1012.0 |
| 20260507175921 | 20 | 44 | 0.0 | 0.0 | 0.00 | 2.21 | 0.23 | 54 | 1011.9 |
| 20260507175427 | 20 | 44 | 0.0 | 0.0 | 0.00 | 2.21 | 0.23 | 54 | 1011.8 |
| 20260507174928 | 21 | 150 | 0.0 | 0.0 | 0.00 | 2.21 | 0.23 | 54 | 1011.8 |
| 20260507174428 | 21 | 136 | 0.0 | 0.0 | 0.00 | 2.21 | 0.23 | 55 | 1011.8 |
| 20260507173948 | 21 | 136 | 0.0 | 0.0 | 0.00 | 2.21 | 0.23 | 55 | 1011.7 |
| 20260507173448 | 21 | 142 | 0.0 | 0.0 | 0.00 | 2.21 | 0.23 | 54 | 1011.7 |
| 20260507172928 | 20 | 146 | 0.0 | 0.0 | 0.00 | 2.21 | 0.23 | 54 | 1011.8 |
| 20260507172415 | 21 | 310 | 0.0 | 0.0 | 0.00 | 2.21 | 0.23 | 53 | 1011.7 |
| 20260507171917 | 21 | 247 | 0.0 | 0.0 | 0.00 | 2.21 | 0.23 | 53 | 1011.7 |
| 20260507171418 | 21 | 247 | 0.0 | 0.0 | 0.00 | 2.21 | 0.23 | 53 | 1011.7 |
| 20260507170920 | 21 | 34 | 0.0 | 1.6 | 0.00 | 2.21 | 0.23 | 53 | 1011.7 |
| 20260507170420 | 21 | 214 | 0.0 | 1.6 | 0.00 | 2.21 | 0.23 | 53 | 1011.7 |
| 20260507165920 | 21 | 221 | 0.0 | 0.0 | 0.00 | 2.59 | 0.23 | 54 | 1011.7 |
| 20260507165420 | 21 | 2 | 0.0 | 0.0 | 0.00 | 2.59 | 0.23 | 54 | 1011.6 |
| 20260507164921 | 21 | 188 | 0.0 | 0.0 | 0.00 | 2.59 | 0.23 | 54 | 1011.6 |
| 20260507164441 | 21 | 188 | 0.0 | 0.0 | 0.00 | 2.59 | 0.23 | 54 | 1011.6 |
| 20260507163922 | 21 | 186 | 0.0 | 0.0 | 0.00 | 2.59 | 0.23 | 54 | 1011.6 |
| 20260507163425 | 21 | 146 | 0.0 | 0.0 | 0.00 | 2.59 | 0.23 | 54 | 1011.6 |
| 20260507162910 | 21 | 165 | 0.0 | 0.0 | 0.00 | 2.59 | 0.23 | 55 | 1011.6 |
| 20260507162414 | 21 | 169 | 0.0 | 6.4 | 0.00 | 2.59 | 0.23 | 54 | 1011.5 |
| 20260507161920 | 21 | 252 | 0.0 | 6.4 | 0.00 | 2.59 | 0.23 | 55 | 1011.5 |
| 20260507161443 | 21 | 3 | 0.0 | 0.0 | 0.00 | 2.59 | 0.23 | 54 | 1011.5 |
| 20260507160907 | 21 | 11 | 0.0 | 0.0 | 0.00 | 2.59 | 0.23 | 54 | 1011.6 |
| 20260507160412 | 21 | 188 | 0.0 | 0.0 | 0.00 | 2.59 | 0.23 | 54 | 1011.5 |
| 20260507155932 | 21 | 232 | 0.0 | 0.0 | 0.00 | 3.10 | 0.23 | 55 | 1011.5 |
| 20260507155410 | 21 | 229 | 0.0 | 0.0 | 0.00 | 3.10 | 0.23 | 55 | 1011.5 |
| 20260507154911 | 21 | 160 | 0.0 | 0.0 | 0.00 | 3.10 | 0.23 | 54 | 1011.4 |
| 20260507154411 | 21 | 166 | 0.0 | 0.0 | 0.00 | 3.10 | 0.23 | 54 | 1011.6 |
| 20260507153912 | 21 | 222 | 0.0 | 0.0 | 0.00 | 3.10 | 0.23 | 53 | 1011.6 |
| 20260507153413 | 21 | 130 | 0.0 | 0.0 | 0.00 | 3.10 | 0.23 | 53 | 1011.6 |
| 20260507152914 | 21 | 355 | 0.0 | 0.0 | 0.00 | 3.10 | 0.23 | 54 | 1011.7 |
| 20260507152414 | 20 | 148 | 0.0 | 4.8 | 0.00 | 3.10 | 0.23 | 54 | 1011.7 |
| 20260507151919 | 20 | 146 | 0.0 | 4.8 | 0.00 | 3.10 | 0.23 | 53 | 1011.7 |
| 20260507151420 | 20 | 132 | 0.0 | 0.0 | 0.00 | 3.10 | 0.23 | 56 | 1011.7 |
| 20260507150928 | 20 | 249 | 0.0 | 0.0 | 0.00 | 3.10 | 0.23 | 56 | 1011.7 |
| 20260507150429 | 20 | 163 | 0.0 | 0.0 | 0.00 | 3.10 | 0.23 | 57 | 1011.7 |
| 20260507145911 | 20 | 24 | 0.0 | 0.0 | 0.00 | 3.61 | 0.23 | 56 | 1011.8 |
| 20260507145410 | 21 | 358 | 0.0 | 0.0 | 0.00 | 3.61 | 0.23 | 56 | 1011.8 |
| 20260507144931 | 21 | 223 | 0.0 | 4.8 | 0.00 | 3.61 | 0.23 | 55 | 1011.8 |
| 20260507144411 | 21 | 211 | 0.0 | 3.2 | 0.00 | 3.61 | 0.23 | 56 | 1011.8 |
| 20260507143916 | 21 | 206 | 0.0 | 3.2 | 0.00 | 3.61 | 0.23 | 55 | 1011.8 |
| 20260507143417 | 21 | 163 | 0.0 | 0.0 | 0.00 | 3.61 | 0.23 | 55 | 1011.8 |
| 20260507142921 | 20 | 236 | 0.0 | 0.0 | 0.00 | 3.61 | 0.23 | 58 | 1011.8 |
| 20260507142442 | 20 | 176 | 0.0 | 12.9 | 0.00 | 3.61 | 0.23 | 58 | 1011.9 |
| 20260507141926 | 20 | 358 | 0.0 | 3.2 | 0.00 | 3.61 | 0.23 | 59 | 1011.8 |
| 20260507141427 | 20 | 7 | 0.0 | 1.6 | 0.00 | 3.61 | 0.23 | 58 | 1011.9 |
| 20260507140928 | 20 | 7 | 0.0 | 1.6 | 0.00 | 3.61 | 0.23 | 58 | 1012.0 |
| 20260507140412 | 20 | 259 | 0.0 | 0.0 | 0.00 | 3.61 | 0.23 | 58 | 1012.1 |
| 20260507135912 | 20 | 193 | 0.0 | 0.0 | 0.00 | 4.19 | 0.23 | 58 | 1012.1 |
| 20260507135436 | 20 | 241 | 0.0 | 8.0 | 0.00 | 4.19 | 0.23 | 59 | 1012.1 |
| 20260507134917 | 20 | 38 | 1.6 | 8.0 | 0.00 | 4.19 | 0.23 | 58 | 1012.2 |
| 20260507134417 | 20 | 275 | 0.0 | 0.0 | 0.00 | 4.19 | 0.23 | 58 | 1012.2 |
| 20260507133938 | 20 | 319 | 0.0 | 0.0 | 0.00 | 4.19 | 0.23 | 59 | 1012.2 |
| 20260507133417 | 20 | 211 | 0.0 | 8.0 | 0.00 | 4.19 | 0.23 | 59 | 1012.2 |
| 20260507132919 | 20 | 221 | 0.0 | 8.0 | 0.00 | 4.19 | 0.23 | 58 | 1012.3 |
| 20260507132419 | 20 | 290 | 0.0 | 1.6 | 0.00 | 4.19 | 0.23 | 58 | 1012.3 |
| 20260507131921 | 20 | 200 | 0.0 | 6.4 | 0.00 | 4.19 | 0.23 | 58 | 1012.3 |
| 20260507131422 | 20 | 138 | 0.0 | 11.3 | 0.00 | 4.19 | 0.23 | 59 | 1012.4 |
| 20260507130907 | 20 | 221 | 0.0 | 3.2 | 0.00 | 4.19 | 0.23 | 60 | 1012.4 |
| 20260507130410 | 20 | 249 | 0.0 | 3.2 | 0.00 | 4.19 | 0.23 | 60 | 1012.5 |
| 20260507125914 | 20 | 221 | 0.0 | 6.4 | 0.00 | 4.50 | 0.23 | 60 | 1012.5 |
| 20260507125435 | 20 | 237 | 0.0 | 9.7 | 0.00 | 4.50 | 0.23 | 60 | 1012.5 |
| 20260507124920 | 20 | 130 | 0.0 | 9.7 | 0.00 | 4.50 | 0.23 | 60 | 1012.5 |
| 20260507124420 | 20 | 234 | 0.0 | 1.6 | 0.10 | 4.50 | 0.23 | 59 | 1012.6 |
| 20260507123925 | 20 | 7 | 0.0 | 9.7 | 0.10 | 4.50 | 0.23 | 59 | 1012.6 |
| 20260507123426 | 19 | 219 | 0.0 | 9.7 | 0.10 | 4.50 | 0.23 | 61 | 1012.7 |
| 20260507122927 | 19 | 16 | 1.6 | 9.7 | 0.10 | 4.50 | 0.23 | 62 | 1012.8 |
| 20260507122428 | 19 | 24 | 0.0 | 9.7 | 0.10 | 4.50 | 0.23 | 61 | 1012.7 |
| 20260507121929 | 20 | 206 | 0.0 | 11.3 | 0.10 | 4.50 | 0.23 | 62 | 1012.8 |
| 20260507121412 | 20 | 229 | 0.0 | 11.3 | 0.10 | 4.50 | 0.23 | 62 | 1012.8 |
| 20260507120917 | 20 | 188 | 0.0 | 0.0 | 0.10 | 4.50 | 0.23 | 63 | 1012.8 |
| 20260507120420 | 19 | 34 | 0.0 | 1.6 | 0.10 | 4.50 | 0.23 | 63 | 1012.8 |
| 20260507115942 | 18 | 206 | 0.0 | 12.9 | 0.10 | 4.70 | 0.23 | 64 | 1012.8 |
| 20260507115425 | 18 | 310 | 0.0 | 12.9 | 0.10 | 4.70 | 0.23 | 65 | 1012.9 |
| 20260507114910 | 18 | 356 | 0.0 | 17.7 | 0.20 | 4.70 | 0.23 | 65 | 1012.9 |
| 20260507114417 | 18 | 246 | 1.6 | 17.7 | 0.10 | 4.60 | 0.23 | 65 | 1012.9 |
| 20260507113919 | 18 | 34 | 1.6 | 17.7 | 0.10 | 4.60 | 0.23 | 65 | 1013.0 |
| 20260507113420 | 18 | 15 | 0.0 | 14.5 | 0.10 | 4.60 | 0.23 | 65 | 1013.0 |
| 20260507112908 | 18 | 19 | 1.6 | 14.5 | 0.10 | 4.60 | 0.23 | 64 | 1013.1 |
| 20260507112411 | 18 | 19 | 0.0 | 9.7 | 0.10 | 4.60 | 0.23 | 66 | 1013.1 |
| 20260507111915 | 18 | 221 | 0.0 | 9.7 | 0.10 | 4.60 | 0.23 | 66 | 1013.2 |
| 20260507111416 | 18 | 150 | 0.0 | 17.7 | 0.10 | 4.60 | 0.23 | 65 | 1013.2 |
| 20260507110921 | 18 | 14 | 1.6 | 17.7 | 0.10 | 4.60 | 0.23 | 65 | 1013.2 |
| 20260507110422 | 18 | 24 | 1.6 | 8.0 | 0.10 | 4.60 | 0.23 | 65 | 1013.3 |
| 20260507105927 | 18 | 355 | 0.0 | 8.0 | 0.10 | 4.60 | 0.23 | 67 | 1013.4 |
| 20260507105426 | 18 | 7 | 1.6 | 16.1 | 0.10 | 4.80 | 0.23 | 67 | 1013.4 |
| 20260507104912 | 18 | 24 | 4.8 | 16.1 | 0.00 | 4.70 | 0.20 | 66 | 1013.4 |
| 20260507104435 | 18 | 232 | 0.0 | 6.4 | 0.00 | 4.70 | 0.20 | 68 | 1013.4 |
| 20260507103915 | 18 | 357 | 0.0 | 6.4 | 0.00 | 4.70 | 0.20 | 65 | 1013.5 |
| 20260507103436 | 18 | 220 | 0.0 | 4.8 | 0.10 | 4.70 | 0.20 | 65 | 1013.6 |
| 20260507102919 | 18 | 238 | 0.0 | 4.8 | 0.10 | 4.70 | 0.20 | 65 | 1013.7 |
| 20260507102419 | 18 | 213 | 0.0 | 0.0 | 0.10 | 4.70 | 0.20 | 66 | 1013.6 |
| 20260507101921 | 18 | 105 | 0.0 | 8.0 | 0.10 | 4.70 | 0.20 | 66 | 1013.6 |
| 20260507101442 | 18 | 236 | 1.6 | 8.0 | 0.10 | 4.70 | 0.20 | 66 | 1013.7 |
| 20260507100927 | 18 | 357 | 0.0 | 0.0 | 0.10 | 4.70 | 0.20 | 67 | 1013.7 |
| 20260507100426 | 18 | 230 | 0.0 | 8.0 | 0.10 | 4.70 | 0.20 | 66 | 1013.6 |
| 20260507095927 | 18 | 263 | 0.0 | 8.0 | 0.20 | 4.70 | 0.20 | 67 | 1013.7 |
| 20260507095429 | 17 | 304 | 0.0 | 0.0 | 0.20 | 4.70 | 0.20 | 69 | 1013.7 |
| 20260507094929 | 17 | 227 | 0.0 | 0.0 | 0.20 | 4.70 | 0.20 | 68 | 1013.6 |
| 20260507094429 | 17 | 239 | 0.0 | 1.6 | 0.20 | 4.70 | 0.20 | 68 | 1013.7 |
| 20260507093910 | 17 | 327 | 0.0 | 1.6 | 0.20 | 4.70 | 0.20 | 68 | 1013.7 |
| 20260507093414 | 17 | 229 | 0.0 | 4.8 | 0.10 | 4.60 | 0.18 | 69 | 1013.7 |
| 20260507092935 | 17 | 34 | 0.0 | 4.8 | 0.10 | 4.60 | 0.18 | 69 | 1013.6 |
| 20260507092414 | 17 | 24 | 0.0 | 0.0 | 0.10 | 4.60 | 0.18 | 70 | 1013.6 |
| 20260507091915 | 16 | 335 | 0.0 | 4.8 | 0.10 | 4.60 | 0.18 | 71 | 1013.6 |
| 20260507091436 | 16 | 24 | 0.0 | 0.0 | 0.10 | 4.60 | 0.18 | 71 | 1013.6 |
| 20260507090936 | 16 | 338 | 0.0 | 0.0 | 0.10 | 4.60 | 0.18 | 72 | 1013.6 |
| 20260507090416 | 16 | 348 | 0.0 | 4.8 | 0.10 | 4.60 | 0.18 | 72 | 1013.6 |
| 20260507085920 | 16 | 13 | 0.0 | 4.8 | 0.00 | 4.50 | 0.15 | 71 | 1013.6 |
| 20260507085421 | 16 | 338 | 0.0 | 0.0 | 0.00 | 4.50 | 0.15 | 75 | 1013.6 |
| 20260507084930 | 16 | 217 | 0.0 | 0.0 | 0.00 | 4.50 | 0.15 | 77 | 1013.6 |
| 20260507084430 | 15 | 7 | 0.0 | 0.0 | 0.00 | 4.50 | 0.15 | 81 | 1013.6 |
| 20260507083914 | 15 | 7 | 0.0 | 0.0 | 0.00 | 4.50 | 0.15 | 81 | 1013.5 |
| 20260507083414 | 15 | 13 | 0.0 | 0.0 | 0.00 | 4.50 | 0.15 | 84 | 1013.6 |
| 20260507082916 | 15 | 4 | 0.0 | 0.0 | 0.00 | 4.50 | 0.15 | 85 | 1013.6 |
| 20260507082437 | 15 | 1 | 0.0 | 0.0 | 0.10 | 4.50 | 0.15 | 85 | 1013.6 |
| 20260507081917 | 14 | 360 | 0.0 | 0.0 | 0.10 | 4.50 | 0.15 | 85 | 1013.6 |
| 20260507081417 | 14 | 354 | 0.0 | 0.0 | 0.10 | 4.50 | 0.15 | 86 | 1013.6 |
| 20260507080926 | 13 | 349 | 0.0 | 0.0 | 0.10 | 4.50 | 0.15 | 86 | 1013.5 |
| 20260507080429 | 13 | 290 | 0.0 | 0.0 | 0.10 | 4.50 | 0.15 | 87 | 1013.6 |
| 20260507075911 | 13 | 176 | 0.0 | 0.0 | 0.10 | 4.50 | 0.15 | 87 | 1013.6 |
| 20260507075450 | 13 | 177 | 0.0 | 0.0 | 0.10 | 4.50 | 0.15 | 88 | 1013.5 |
| 20260507074950 | 13 | 234 | 0.0 | 0.0 | 0.10 | 4.50 | 0.15 | 88 | 1013.6 |
| 20260507074410 | 13 | 10 | 0.0 | 0.0 | 0.10 | 4.50 | 0.15 | 88 | 1013.4 |
| 20260507073911 | 13 | 9 | 0.0 | 0.0 | 0.20 | 4.50 | 0.15 | 88 | 1013.3 |
| 20260507073412 | 13 | 9 | 0.0 | 0.0 | 0.20 | 4.50 | 0.15 | 89 | 1013.3 |
| 20260507072913 | 13 | 9 | 0.0 | 0.0 | 0.20 | 4.50 | 0.15 | 90 | 1013.3 |
| 20260507072435 | 13 | 3 | 0.0 | 0.0 | 0.10 | 4.39 | 0.15 | 90 | 1013.2 |
| 20260507071935 | 12 | 358 | 0.0 | 0.0 | 0.10 | 4.39 | 0.15 | 90 | 1013.2 |
| 20260507071415 | 12 | 358 | 0.0 | 0.0 | 0.10 | 4.39 | 0.15 | 90 | 1013.2 |
| 20260507070919 | 12 | 358 | 0.0 | 0.0 | 0.10 | 4.39 | 0.15 | 90 | 1013.3 |
| 20260507070439 | 12 | 358 | 0.0 | 0.0 | 0.10 | 4.39 | 0.15 | 91 | 1013.3 |
| 20260507065920 | 12 | 356 | 0.0 | 0.0 | 0.10 | 4.39 | 0.15 | 90 | 1013.2 |
| 20260507065420 | 12 | 356 | 0.0 | 0.0 | 0.10 | 4.39 | 0.15 | 91 | 1013.2 |
| 20260507064921 | 12 | 356 | 0.0 | 0.0 | 0.10 | 4.39 | 0.15 | 91 | 1013.1 |
| 20260507064425 | 12 | 354 | 0.0 | 0.0 | 0.10 | 4.39 | 0.15 | 91 | 1013.1 |
| 20260507063926 | 12 | 354 | 0.0 | 0.0 | 0.00 | 4.29 | 0.13 | 91 | 1013.0 |
| 20260507063426 | 12 | 253 | 0.0 | 0.0 | 0.00 | 4.29 | 0.13 | 91 | 1013.0 |
| 20260507062927 | 12 | 252 | 0.0 | 0.0 | 0.00 | 4.29 | 0.13 | 91 | 1012.9 |
| 20260507062428 | 12 | 252 | 0.0 | 0.0 | 0.10 | 4.29 | 0.13 | 91 | 1012.9 |
| 20260507061930 | 12 | 252 | 0.0 | 0.0 | 0.10 | 4.29 | 0.13 | 91 | 1012.9 |
| 20260507061410 | 12 | 329 | 0.0 | 0.0 | 0.10 | 4.29 | 0.13 | 91 | 1012.8 |
| 20260507060914 | 12 | 331 | 0.0 | 0.0 | 0.10 | 4.29 | 0.13 | 92 | 1012.8 |
| 20260507060415 | 12 | 331 | 0.0 | 0.0 | 0.10 | 4.29 | 0.13 | 92 | 1012.7 |
| 20260507055920 | 12 | 331 | 0.0 | 0.0 | 0.10 | 4.29 | 0.13 | 92 | 1012.7 |
| 20260507055424 | 12 | 354 | 0.0 | 0.0 | 0.10 | 4.29 | 0.13 | 92 | 1012.7 |
| 20260507054910 | 12 | 354 | 0.0 | 0.0 | 0.20 | 4.29 | 0.13 | 92 | 1012.7 |
| 20260507054410 | 12 | 354 | 0.0 | 0.0 | 0.20 | 4.29 | 0.13 | 92 | 1012.6 |
| 20260507053936 | 12 | 354 | 0.0 | 0.0 | 0.20 | 4.29 | 0.13 | 92 | 1012.6 |
| 20260507053416 | 12 | 354 | 0.0 | 0.0 | 0.20 | 4.29 | 0.13 | 92 | 1012.4 |
| 20260507052941 | 12 | 354 | 0.0 | 0.0 | 0.20 | 4.29 | 0.13 | 92 | 1012.3 |
| 20260507052420 | 12 | 354 | 0.0 | 0.0 | 0.10 | 4.19 | 0.10 | 92 | 1012.3 |
| 20260507051921 | 12 | 354 | 0.0 | 0.0 | 0.10 | 4.19 | 0.10 | 92 | 1012.3 |
| 20260507051422 | 12 | 354 | 0.0 | 0.0 | 0.10 | 4.19 | 0.10 | 91 | 1012.3 |
| 20260507050906 | 12 | 354 | 0.0 | 0.0 | 0.10 | 4.19 | 0.10 | 91 | 1012.2 |
| 20260507050410 | 12 | 354 | 0.0 | 0.0 | 0.10 | 4.19 | 0.10 | 91 | 1012.1 |
| 20260507045911 | 12 | 354 | 0.0 | 0.0 | 0.10 | 4.19 | 0.10 | 91 | 1012.0 |
| 20260507045432 | 12 | 354 | 0.0 | 0.0 | 0.10 | 4.19 | 0.10 | 91 | 1012.0 |
| 20260507044912 | 11 | 354 | 0.0 | 0.0 | 0.00 | 4.09 | 0.08 | 91 | 1011.9 |
| 20260507044412 | 11 | 354 | 0.0 | 0.0 | 0.00 | 4.09 | 0.08 | 91 | 1011.8 |
| 20260507043918 | 11 | 354 | 0.0 | 0.0 | 0.00 | 4.09 | 0.08 | 91 | 1011.8 |
| 20260507043426 | 11 | 354 | 0.0 | 0.0 | 0.10 | 4.09 | 0.08 | 91 | 1011.7 |
| 20260507042912 | 11 | 352 | 0.0 | 0.0 | 0.10 | 4.09 | 0.08 | 91 | 1011.8 |
| 20260507042431 | 11 | 352 | 0.0 | 0.0 | 0.10 | 4.09 | 0.08 | 91 | 1011.7 |
| 20260507041912 | 11 | 352 | 0.0 | 0.0 | 0.10 | 4.09 | 0.08 | 90 | 1011.7 |
| 20260507041413 | 11 | 352 | 0.0 | 0.0 | 0.10 | 4.09 | 0.08 | 90 | 1011.6 |
| 20260507040935 | 11 | 352 | 0.0 | 0.0 | 0.10 | 4.09 | 0.08 | 90 | 1011.6 |
| 20260507040435 | 11 | 352 | 0.0 | 0.0 | 0.10 | 4.09 | 0.08 | 90 | 1011.6 |
| 20260507035915 | 11 | 352 | 0.0 | 0.0 | 0.10 | 4.19 | 0.08 | 90 | 1011.6 |
| 20260507035435 | 11 | 356 | 0.0 | 0.0 | 0.10 | 4.19 | 0.08 | 90 | 1011.5 |
| 20260507034919 | 11 | 354 | 0.0 | 1.6 | 0.20 | 4.19 | 0.08 | 90 | 1011.6 |
| 20260507034419 | 11 | 354 | 0.0 | 1.6 | 0.20 | 4.19 | 0.08 | 90 | 1011.5 |
| 20260507033941 | 11 | 338 | 0.0 | 0.0 | 0.20 | 4.19 | 0.08 | 89 | 1011.5 |
| 20260507033427 | 11 | 344 | 0.0 | 0.0 | 0.10 | 4.09 | 0.05 | 89 | 1011.5 |
| 20260507032928 | 12 | 344 | 0.0 | 0.0 | 0.10 | 4.09 | 0.05 | 89 | 1011.5 |
| 20260507032428 | 12 | 345 | 0.0 | 0.0 | 0.10 | 4.09 | 0.05 | 89 | 1011.5 |
| 20260507031949 | 12 | 358 | 0.0 | 0.0 | 0.10 | 4.09 | 0.05 | 89 | 1011.4 |
| 20260507031429 | 12 | 358 | 0.0 | 0.0 | 0.10 | 4.09 | 0.05 | 89 | 1011.5 |
| 20260507030914 | 12 | 7 | 0.0 | 0.0 | 0.10 | 4.09 | 0.05 | 89 | 1011.4 |
| 20260507030414 | 12 | 3 | 0.0 | 0.0 | 0.10 | 4.09 | 0.05 | 89 | 1011.4 |
| 20260507025935 | 12 | 347 | 0.0 | 0.0 | 0.10 | 4.19 | 0.05 | 89 | 1011.5 |
| 20260507025438 | 12 | 347 | 0.0 | 0.0 | 0.10 | 4.19 | 0.05 | 89 | 1011.5 |
| 20260507024918 | 12 | 344 | 0.0 | 0.0 | 0.00 | 4.09 | 0.05 | 89 | 1011.4 |
| 20260507024439 | 12 | 332 | 0.0 | 0.0 | 0.00 | 4.09 | 0.05 | 89 | 1011.4 |
| 20260507023920 | 12 | 18 | 0.0 | 0.0 | 0.00 | 4.09 | 0.05 | 89 | 1011.4 |
| 20260507023420 | 12 | 357 | 0.0 | 0.0 | 0.00 | 4.09 | 0.05 | 90 | 1011.4 |
| 20260507022924 | 12 | 358 | 0.0 | 0.0 | 0.10 | 4.09 | 0.05 | 90 | 1011.3 |
| 20260507022424 | 12 | 5 | 0.0 | 0.0 | 0.10 | 4.09 | 0.05 | 90 | 1011.4 |
| 20260507021925 | 12 | 338 | 0.0 | 0.0 | 0.10 | 4.09 | 0.05 | 90 | 1011.3 |
| 20260507021426 | 12 | 327 | 0.0 | 0.0 | 0.10 | 4.09 | 0.05 | 90 | 1011.3 |
| 20260507020910 | 12 | 343 | 0.0 | 8.0 | 0.10 | 4.09 | 0.05 | 90 | 1011.3 |
| 20260507020431 | 12 | 346 | 0.0 | 8.0 | 0.10 | 4.09 | 0.05 | 90 | 1011.3 |
| 20260507015911 | 12 | 344 | 0.0 | 0.0 | 0.10 | 4.19 | 0.05 | 90 | 1011.3 |
| 20260507015410 | 12 | 360 | 0.0 | 0.0 | 0.20 | 4.19 | 0.05 | 91 | 1011.2 |
| 20260507014915 | 12 | 360 | 0.0 | 0.0 | 0.20 | 4.19 | 0.05 | 90 | 1011.1 |
| 20260507014416 | 12 | 13 | 0.0 | 0.0 | 0.20 | 4.19 | 0.05 | 90 | 1011.1 |
| 20260507013917 | 12 | 14 | 0.0 | 0.0 | 0.20 | 4.19 | 0.05 | 90 | 1011.1 |
| 20260507013417 | 12 | 15 | 0.0 | 0.0 | 0.20 | 4.19 | 0.05 | 90 | 1011.1 |
| 20260507012919 | 12 | 15 | 0.0 | 0.0 | 0.10 | 4.09 | 0.03 | 89 | 1011.1 |
| 20260507012419 | 12 | 15 | 0.0 | 0.0 | 0.10 | 4.09 | 0.03 | 89 | 1011.2 |
| 20260507011920 | 12 | 15 | 0.0 | 0.0 | 0.10 | 4.09 | 0.03 | 88 | 1011.2 |
| 20260507011441 | 12 | 15 | 0.0 | 0.0 | 0.10 | 4.09 | 0.03 | 88 | 1011.3 |
| 20260507010921 | 12 | 15 | 0.0 | 0.0 | 0.10 | 4.09 | 0.03 | 88 | 1011.3 |
| 20260507010427 | 12 | 15 | 0.0 | 0.0 | 0.10 | 4.09 | 0.03 | 87 | 1011.3 |
| 20260507005932 | 12 | 15 | 0.0 | 0.0 | 0.10 | 4.09 | 0.03 | 87 | 1011.3 |
| 20260507005437 | 12 | 15 | 0.0 | 0.0 | 0.00 | 4.09 | 0.00 | 86 | 1011.3 |
| 20260507004941 | 13 | 15 | 0.0 | 0.0 | 0.00 | 4.09 | 0.00 | 85 | 1011.3 |
| 20260507004427 | 13 | 15 | 0.0 | 0.0 | 0.10 | 4.09 | 0.00 | 85 | 1011.4 |
| 20260507003935 | 13 | 15 | 0.0 | 0.0 | 0.10 | 4.09 | 0.00 | 84 | 1011.4 |
| 20260507003440 | 13 | 15 | 0.0 | 0.0 | 0.10 | 4.09 | 0.00 | 83 | 1011.5 |
| 20260507003002 | 13 | 15 | 0.0 | 0.0 | 0.10 | 4.09 | 0.00 | 83 | 1011.5 |
| 20260507002444 | 13 | 288 | 0.0 | 0.0 | 0.10 | 4.09 | 0.00 | 82 | 1011.5 |
| 20260507001947 | 13 | 352 | 0.0 | 0.0 | 0.10 | 4.09 | 0.00 | 82 | 1011.4 |
| 20260507001448 | 13 | 352 | 0.0 | 0.0 | 0.10 | 4.09 | 0.00 | 81 | 1011.3 |
| 20260507000949 | 13 | 352 | 0.0 | 0.0 | 0.10 | 4.09 | 0.05 | 81 | 1011.3 |
| 20260507000453 | 13 | 352 | 0.0 | 0.0 | 0.20 | 4.09 | 0.05 | 80 | 1011.2 |
| 20260506235953 | 13 | 352 | 0.0 | 0.0 | 0.20 | 4.09 | 0.05 | 80 | 1011.2 |
| 20260506235435 | 13 | 352 | 0.0 | 0.0 | 0.20 | 4.19 | 0.05 | 80 | 1011.2 |
| 20260506234956 | 13 | 350 | 0.0 | 0.0 | 0.20 | 4.19 | 0.05 | 80 | 1011.2 |
| 20260506234435 | 13 | 2 | 0.0 | 0.0 | 0.10 | 4.09 | 0.05 | 80 | 1011.2 |
| 20260506233937 | 13 | 15 | 0.0 | 0.0 | 0.10 | 4.09 | 0.05 | 80 | 1011.2 |
| 20260506233442 | 13 | 15 | 0.0 | 0.0 | 0.10 | 4.09 | 0.05 | 80 | 1011.2 |
| 20260506232942 | 13 | 17 | 0.0 | 0.0 | 0.10 | 4.09 | 0.05 | 80 | 1011.1 |
| 20260506232443 | 13 | 17 | 0.0 | 0.0 | 0.10 | 4.09 | 0.05 | 80 | 1011.0 |
| 20260506232007 | 13 | 29 | 0.0 | 0.0 | 0.10 | 4.09 | 0.05 | 80 | 1011.0 |
| 20260506231450 | 13 | 61 | 0.0 | 0.0 | 0.10 | 4.09 | 0.05 | 80 | 1011.0 |
| 20260506231011 | 13 | 62 | 0.0 | 0.0 | 0.10 | 4.09 | 0.05 | 80 | 1010.8 |
| 20260506225949 | 13 | 356 | 0.0 | 0.0 | 0.00 | 3.99 | 0.03 | 80 | 1010.7 |